Regional Weather Roundup
Issued by NWS New Orleans/Baton Rouge, LA

Home | Current Version | Previous Version | Text Only | Print | Product List | Glossary On
Versions: 1 2 3 4 5 6 7 8 9 10 11 12 13 14 15 16 17 18 19 20 21 22 23 24 25 26 27 28 29 30 31 32 33 34 35 36 37 38 39 40 41 42 43 44 45 46 47 48 49 50
000
ASUS44 KLIX 140110
RWRLIX
NEW ORLEANS REGIONAL WEATHER ROUNDUP
NATIONAL WEATHER SERVICE NEW ORLEANS LA
800 PM CDT SUN JUL 13 2014

NOTE: "FAIR" INDICATES FEW OR NO CLOUDS BELOW 12,000 FEET WITH NO
      SIGNIFICANT WEATHER AND/OR OBSTRUCTIONS TO VISIBILITY.
      SKY/WX - SKY CONDITION AND SIGNIFICANT WEATHER.
      TMP - AIR TEMPERATURE.     DP    - DEWPOINT TEMPERATURE.
      RH  - RELATIVE HUMIDITY.   PRES  - PRESSURE.
      HI  - HEAT INDEX.          WCI   - WIND CHILL INDEX.

*  THESE STATIONS ARE NOT NWS OR FAA STATIONS AND ARE NOT UNDER
   NWS QUALITY CONTROL.

LAZ038-040-048-061>063-065>067-069-140200-
SOUTHEAST LOUISIANA

CITY           SKY/WX    TMP DP  RH WIND       PRES   REMARKS
N.O. AUDUBON     N/A     79  76  90 MISG        N/A
N.O. INTL ARPT PTCLDY    82  74  76 E6        30.02S
N.O. LAKEFRONT PTCLDY    85  73  67 NE7       30.02S
N.O. DOWNTOWN* MOCLDY    81  70  69 CALM      30.03S
SLIDELL        CLEAR     78  73  84 CALM      30.02F
BATON ROUGE    MOCLDY    83  73  72 SW5       30.02F
BOOTHVILLE     CLEAR     82  73  74 S6        30.04F
BELLE CHASSE     N/A     81  74  79 CALM      30.02S
BOGALUSA*        N/A     76  72  87 CALM      30.03F
GALLIANO*      NOT AVBL
NEW ROADS*       N/A     82  74  78 CALM      30.02S
GONZALES*        N/A     81  76  86 SW5       30.03R
HAMMOND*       PTCLDY    79  70  73 CALM      30.04S
HOUMA*         PTCLDY    79  72  77 CALM      30.04R
PORT FOURCHON* PTCLDY    86  73  66 VRB3      30.05S

$$

MSZ070-080>082-140200-
SOUTHERN MISSISSIPPI

CITY           SKY/WX    TMP DP  RH WIND       PRES   REMARKS
MCCOMB         CLOUDY    76  70  82 CALM      30.04F
GULFPORT       CLEAR     86  73  65 S5        30.02F
BILOXI         CLEAR     83  73  72 S6        30.03F
PASCAGOULA     CLEAR     82  74  76 S3        30.04S
STENNIS ARPT*  PTCLDY   N/A N/A N/A VRB5      30.03S

$$

COASTAL OBSERVATIONS
LAKE AND NEARSHORE STATIONS

STATION/POSITION TIME  TEMP    WIND        PRES    WAVE
                       AIR SEA DIR/SP/G            HT/PER
                 (UTC) (F)     (DEG/KT/KT) (MB)    (FT/S)
PASCAGOULA       0100   84     200/  7/ 10 1016.7
WAVELAND YACHT   0100   84     190/  3/  4 1016.2
GRAND ISLE       0100   84 89  180/  3/  5 1017.6
SOUTHWEST PASS   0100   84 85  200/  4/  6 1017.6
NEW CANAL        0100   83 85   40/  3/  4 1017.1
SHELL BEACH      0100   85 84  150/  7/  7 1016.6

OFFSHORE STATIONS

STATION/POSITION TIME  TEMP    WIND        PRES    WAVE
                       AIR SEA DIR/SP/G            HT/PER
                 (UTC) (F)     (DEG/KT/KT) (MB)    (FT/S)
64 S DAUPHIN ISL 0043   84 90  200/  8/ 10 1017.9

$$



USA.gov is the U.S. government's official web portal to all federal, state and local government web resources and services.